EW5526 Weather Reports


Display with metric or nautical units.
time (UTC)temp
F
wind
direction
speed
MPH
gust
MPH
rain 1hr
in
rain 24hr
in
rain mn
in
humidity
%
barometer
mb
20260904223032 75 9 3.0 5.0 0.00 0.00 0.00 67 1021.1
20260904220032 75 29 2.0 5.0 0.00 0.00 0.00 67 1021.0
20260904213033 76 81 2.0 3.0 0.00 0.00 0.00 63 1020.9
20260904183031 78 313 6.0 10.0 0.00 0.00 0.00 78 1019.9
20260904180030 78 346 3.0 8.0 0.00 0.00 0.00 75 1019.5
20260904143027 87 323 5.0 13.0 0.00 0.00 0.00 55 1019.0
20260904140026 88 5 5.0 10.0 0.00 0.00 0.00 57 1018.8
20260904133026 88 33 5.0 11.0 0.00 0.00 0.00 55 1019.2
20260904130026 89 337 6.0 10.0 0.00 0.00 0.00 52 1019.4
20260904120026 91 200 3.0 11.0 0.00 0.00 0.00 47 1019.8
20260904113025 90 205 2.0 4.0 0.00 0.00 0.00 46 1020.1
20260904110025 91 185 5.0 7.0 0.00 0.00 0.00 42 1020.3
20260904103024 91 185 2.0 7.0 0.00 0.00 0.00 42 1020.3
20260904100024 90 140 0.0 2.0 0.00 0.00 0.00 45 1020.5
20260904093023 88 25 2.0 4.0 0.00 0.00 0.00 48 1020.5
20260904090023 87 90 6.0 6.0 0.00 0.00 0.00 50 1020.4
20260904083023 85 24 1.0 4.0 0.00 0.00 0.00 52 1020.1
20260904080022 84 14 2.0 7.0 0.00 0.00 0.00 55 1019.8
20260904073022 82 24 4.0 8.0 0.00 0.00 0.00 56 1019.7
20260904063021 78 17 1.0 9.0 0.00 0.00 0.00 74 1018.9
20260904060021 76 318 3.0 10.0 0.00 0.00 0.00 77 1018.5
20260904053021 74 348 5.0 9.0 0.00 0.00 0.00 84 1018.3
20260904050021 73 355 6.0 9.0 0.00 0.00 0.00 84 1018.2
20260904043020 73 340 1.0 5.0 0.00 0.00 0.00 85 1018.0
20260904040020 73 9 12.0 12.0 0.00 0.00 0.00 85 1017.9
20260904033020 73 331 2.0 6.0 0.00 0.00 0.00 85 1018.2
20260904030020 73 343 3.0 6.0 0.00 0.00 0.00 84 1018.3